Preview of NWS' New Version of Forecast
This preview is not operational and should not be used for support decisions.

Regional Weather Roundup (RWR)

Issued by National Weather Service (NWS)

                            
000
ASUS45 KBOU 181410
RWRCO 

WEATHER ROUNDUP FOR COLORADO
NATIONAL WEATHER SERVICE DENVER/BOULDER CO
800 AM MDT THU JUL 18 2019

NOTE: "FAIR" INDICATES FEW OR NO CLOUDS BELOW 12000 FEET WITH NO
SIGNIFICANT WEATHER AND/OR OBSTRUCTIONS TO VISIBILITY.

COZ001>005-013-030-031-181500-
...NORTHWEST COLORADO...
  
CITY           SKY/WX    TMP DP  RH WIND       PRES   REMARKS
CRAIG          FAIR      55  41  59 CALM      30.15S                  
HAYDEN         FAIR      58  38  47 E10       30.19R                  
MEEKER         FAIR      56  35  45 CALM      30.19R                  
RANGELY        FAIR      59  37  43 CALM      30.10R                  
RABBIT EARS PA NOT AVBL                                               
STEAMBOAT SPGS FAIR      52  37  57 CALM      30.21R                  
WALDEN         FAIR      55  37  50 S6        30.28S                  
$$

COZ006>008-011-181500-
...WEST CENTRAL VALLEYS...
  
CITY           SKY/WX    TMP DP  RH WIND       PRES   REMARKS
GRAND JUNCTION FAIR      71  35  26 SE10      30.07R                  
MONTROSE       FAIR      69  39  33 E7        30.17R                  
EAGLE          FAIR      54  35  48 CALM      30.26R                  
RIFLE          FAIR      62  38  40 VRB3      30.16R                  
DELTA          FAIR      70  35  27 MISG      30.14R                  
NUCLA          NOT AVBL                                               
$$

COZ017>023-064>068-181500-
...SOUTHWEST COLORADO...
  
CITY           SKY/WX    TMP DP  RH WIND       PRES   REMARKS
DURANGO        FAIR      58  41  53 E3        30.26R                  
CORTEZ         FAIR      64  40  41 NE6       30.21R                  
PAGOSA SPRINGS FAIR      61  34  36 CALM      30.34R                  
TELLURIDE      FAIR      59  32  36 SE5       30.46S                  
WOLF CREEK PAS FAIR      52  27  37 SW5       30.69R                  
$$

COZ009-010-012-014-032>034-037-058>063-181500-
...CENTRAL COLORADO...
  
CITY           SKY/WX    TMP DP  RH WIND       PRES   REMARKS
ASPEN          FAIR      61  35  37 E3        30.28S                  
BUENA VISTA    FAIR      57  31  36 NW5       30.33S                  
COPPER MTN     FAIR      55  28  35 MISG      30.61R                  
BERTHOUD PASS  FAIR      46  34  61 NW26G39   30.60S                  
COTTONWOOD PAS NOT AVBL                                               
GUNNISON       FAIR      50  36  58 CALM      30.37R                  
GRANBY         NOT AVBL                                               
KREMMLING      FAIR      50  36  57 CALM      30.30S                  
LEADVILLE      FAIR      52  29  41 S3        30.44S                  
SALIDA         FAIR      62  31  31 N6        30.37S                  
SUNLIGHT       FAIR      52  28  40 SW12G22   30.53S                  
WILKERSON PASS FAIR      54  21  28 SW10G18   30.57S                  
$$

COZ069>075-181500-
...SAN LUIS VALLEY/SANGRE DE CRISTO MOUNTAINS...
  
CITY           SKY/WX    TMP DP  RH WIND       PRES   REMARKS
ALAMOSA        NOT AVBL                                               
DEL NORTE      FAIR      61  35  37 SW8       30.34R                  
LA VETA PASS   NOT AVBL                                               
SAGUACHE       FAIR      59  34  38 CALM      30.33R                  
$$

COZ035-036-038>040-181500-
...NORTHERN COLORADO FRONT RANGE...
  
CITY           SKY/WX    TMP DP  RH WIND       PRES   REMARKS
DENVER INTL AP PTSUNNY   77  39  25 SW12      30.04S                  
AURORA         FAIR      74  43  32 S8        30.07S                  
FRONT RANGE AP MOSUNNY   77  45  31 W7        30.06S                  
ERIE MUNI ARPT FAIR      74  39  27 CALM      30.06S                  
BOULDER MUN AP   N/A    N/A N/A N/A CALM      30.03R                  
CENTENNIAL     FAIR      76  39  26 S7        30.09R                  
BROOMFIELD     NOT AVBL                                               
FORT COLLINS   FAIR      72  44  36 SW7       30.01S                  
LONGMONT       NOT AVBL                                               
$$

COZ041-046-047-076>085-087-088-181500-
...PIKES PEAK/PALMER DIVIDE AND SOUTHERN FOOTHILLS...
  
CITY           SKY/WX    TMP DP  RH WIND       PRES   REMARKS
COLO. SPRINGS  FAIR      78  35  21 NW7       30.11S                  
A. F. ACADEMY  FAIR      79  30  17 W14       30.13R                  
SCHRIEVER AFB  NOT AVBL                                               
CHEYENNE MTN   NOT AVBL                                               
ELLICOTT         N/A    N/A N/A N/A N7        30.10R                  
FALCON         FAIR      77  27  15 NW14G20   30.18R                  
FORT CARSON    FAIR      75  37  24 NW7       30.06S                  
LIMON          FAIR      76  46  34 W8        30.04R                  
MONUMENT HILL  FAIR      70  41  35 SW6       30.20S                  
CANON CITY     NOT AVBL                                               
WALSENBURG     NOT AVBL                                               
TRINIDAD       FAIR      72  45  37 W13       30.09S                  
$$

COZ042>045-048>051-090-091-181500-
...NORTHEAST COLORADO...
  
CITY           SKY/WX    TMP DP  RH WIND       PRES   REMARKS
GREELEY ARPT   FAIR      71  52  50 NW3       30.00R                  
AKRON          FAIR      71  55  56 W13       29.96S                  
BURLINGTON     FAIR      79  55  43 W9        29.92R                  
WRAY           FAIR      77  54  44 W7        29.88S                  
YUMA           FAIR      73  54  49 W13       29.91R                  
STERLING       FAIR      72  57  60 S6        29.92R                  
HOLYOKE        FAIR      79  55  44 W5        29.87S                  
FORT MORGAN    NOT AVBL                                               
$$

COZ086-089-092>099-181500-
...SOUTHEAST COLORADO...
  
CITY           SKY/WX    TMP DP  RH WIND       PRES   REMARKS
PUEBLO         FAIR      74  45  35 W13       30.00R                  
LA JUNTA       FAIR      76  51  41 W10       29.96R                  
LAMAR            N/A     76  57  51 W13       29.88S                  
SPRINGFIELD      N/A     79  53  40 E3        29.95R                  
$$